Location: Unspecified
(48.2082°N, 0.0000°E)
Time: 06:14:30
(UTC+00:00)

Vanguard 1 - Pass Details

Date: 03 July 2019
Orbit: 653 x 3830 km, 34.3° (Epoch: 15 July)

Event Time Altitude Azimuth Distance (km) Brightness Sun altitude
Rises 02:24:27 0° 258° (WSW) 7,965 14.3 -12.2°
Reaches altitude 10° 02:30:20 10° 255° (WSW) 6,836 13.9 -11.6°
Maximum altitude 02:50:24 49° 189° (S) 3,439 12.5 -9.7°
Drops below altitude 10° 03:02:51 10° 120° (ESE) 4,412 13.5 -8.3°
Sets 03:05:44 0° 114° (ESE) 5,064 14.0 -8.0°
